Dublin, VA

12:51 PM EST on December 12, 2019 (GMT -0500)
New River Valley

Weather History for KPSK - October, 2019

Change the Weather History Date:

Tuesday, October 8, 2019

  Actual Average (WUND) Record (WUND)
Temperature  
Mean Temperature 57 °F -  
Max Temperature 61 °F - - (-1)
Min Temperature 53 °F - - (-1)
Degree Days  
Heating Degree Days 8    
Growing Degree Days 7 (Base 50)    
Moisture  
Dew Point 56 °F    
Average Humidity 97    
Maximum Humidity 100    
Minimum Humidity 91    
Precipitation  
Precipitation 0.40 in - - ()
Sea Level Pressure  
Sea Level Pressure 30.19 in    
Wind  
Wind Speed 6 mph (NE)    
Max Wind Speed 13 mph    
Max Gust Speed 17 mph    
Visibility 7 miles    
Events Rain    
Averages and records for this station are not official NWS values.
T = Trace of Precipitation, MM = Missing Value Source: NWS Daily Summary

Daily Weather History Graph

Daily Weather History Graph

Search for Another Location

Airport or City:

Astronomy

Oct. 08, 2019 Rise Set
Actual Time 7:23 AM EDT 6:56 PM EDT
Civil Twilight 6:57 AM EDT 7:22 PM EDT
Nautical Twilight 6:27 AM EDT 7:52 PM EDT
Astronomical Twilight 5:57 AM EDT 8:22 PM EDT
Moon 4:45 PM EDT (10/8) 2:20 AM EDT (10/8)
Length of Visible Light 12h 24m
Length of Day
11h 32m
Waxing Gibbous, 77% of the Moon is Illuminated
Oct 8
Waxing Gibbous
Oct 13
Full
Oct 21
Last Quarter
Oct 27
New
Nov 4
First Quarter

Hourly Weather History & Observations

Time (EDT) Temp. Dew Point Humidity Pressure Visibility Wind Dir Wind Speed Gust Speed Precip Events Conditions
12:15 AM 61.3 °F 59.0 °F 92% 30.17 in 10.0 mi NW 4.6 mph - N/A   Overcast
12:35 AM 61.2 °F 59.0 °F 93% 30.17 in 10.0 mi North 4.6 mph - N/A   Overcast
12:55 AM 60.8 °F 59.0 °F 94% 30.16 in 10.0 mi North 3.5 mph - N/A Rain Heavy Rain
1:15 AM 59.9 °F 59.0 °F 97% 30.15 in 7.0 mi North 3.5 mph - N/A Rain Light Rain
1:35 AM 59.9 °F 59.2 °F 97% 30.15 in 7.0 mi Calm Calm - N/A Rain Rain
1:55 AM 59.9 °F 59.4 °F 98% 30.15 in 7.0 mi Calm Calm - N/A   Overcast
2:15 AM 59.9 °F 59.4 °F 98% 30.15 in 10.0 mi Calm Calm - N/A   Overcast
2:35 AM 59.9 °F 59.0 °F 97% 30.15 in 10.0 mi Calm Calm - N/A   Overcast
2:55 AM 59.9 °F 59.0 °F 97% 30.14 in 10.0 mi Calm Calm - 0.01 in   Overcast
3:15 AM 59.9 °F 59.2 °F 97% 30.13 in 10.0 mi Calm Calm - N/A   Overcast
3:35 AM 59.5 °F 59.0 °F 98% 30.13 in 10.0 mi North 3.5 mph - N/A   Overcast
3:55 AM 59.4 °F 58.3 °F 96% 30.13 in 10.0 mi North 3.5 mph - N/A   Overcast
4:15 AM 59.0 °F 58.3 °F 97% 30.13 in 10.0 mi Calm Calm - N/A   Drizzle
4:35 AM 59.0 °F 58.3 °F 97% 30.14 in 10.0 mi North 3.5 mph - N/A Rain Light Rain
4:55 AM 58.6 °F 58.5 °F 99% 30.15 in 7.0 mi North 3.5 mph - N/A   Heavy Drizzle
5:15 AM 58.5 °F 58.3 °F 99% 30.15 in 7.0 mi NNE 3.5 mph - N/A Rain Rain
5:35 AM 58.1 °F 58.1 °F 100% 30.16 in 4.0 mi North 4.6 mph - 0.03 in Rain Heavy Rain
5:55 AM 57.6 °F 57.6 °F 100% 30.16 in 7.0 mi North 4.6 mph - 0.06 in Rain Heavy Rain
6:15 AM 57.7 °F 57.7 °F 100% 30.17 in 10.0 mi NNE 6.9 mph - N/A Rain Light Rain
6:35 AM 57.6 °F 57.6 °F 100% 30.17 in 7.0 mi NE 8.1 mph - N/A   Drizzle
6:55 AM 57.4 °F 57.2 °F 99% 30.17 in 7.0 mi NE 8.1 mph - N/A   Light Drizzle
7:15 AM 57.2 °F 57.2 °F 100% 30.18 in 5.0 mi NE 9.2 mph - N/A   Drizzle
7:35 AM 56.7 °F 56.7 °F 100% 30.18 in 3.0 mi East 5.8 mph - N/A Rain Light Rain
7:55 AM 56.3 °F 56.3 °F 100% 30.18 in 3.0 mi East 8.1 mph - 0.01 in Rain Light Rain
8:15 AM 56.3 °F 56.3 °F 100% 30.18 in 3.0 mi East 9.2 mph - N/A Rain Light Rain
8:35 AM 55.6 °F 55.4 °F 99% 30.19 in 2.5 mi ENE 8.1 mph - N/A   Drizzle
8:55 AM 55.6 °F 55.4 °F 99% 30.19 in 2.0 mi ENE 9.2 mph - N/A Rain Light Rain
9:15 AM 55.4 °F 55.4 °F 100% 30.19 in 2.5 mi East 10.4 mph - 0.01 in Rain Heavy Rain
9:35 AM 55.4 °F 55.4 °F 100% 30.20 in 2.0 mi ENE 11.5 mph - 0.02 in Rain Light Rain
9:55 AM 55.2 °F 54.9 °F 99% 30.20 in 2.5 mi ENE 11.5 mph - 0.04 in Rain Rain
10:35 AM 55.0 °F 54.9 °F 99% 30.22 in 4.0 mi ENE 10.4 mph - 0.02 in Rain Rain
10:55 AM 55.0 °F 54.9 °F 99% 30.23 in 3.0 mi ENE 6.9 mph - 0.06 in Rain Rain
11:15 AM 54.9 °F 54.7 °F 99% 30.23 in 3.0 mi ENE 11.5 mph - 0.05 in Rain Rain
11:35 AM 55.4 °F 54.9 °F 98% 30.22 in 5.0 mi NE 11.5 mph - 0.08 in Rain Light Rain
11:55 AM 55.4 °F 54.9 °F 98% 30.22 in 10.0 mi ENE 11.5 mph - 0.09 in Rain Light Rain
12:15 PM 55.4 °F 54.9 °F 98% 30.23 in 7.0 mi ENE 8.1 mph - N/A Rain Rain
12:35 PM 55.4 °F 55.0 °F 99% 30.23 in 7.0 mi ENE 8.1 mph - 0.02 in Rain Light Rain
12:55 PM 55.6 °F 55.2 °F 99% 30.22 in 10.0 mi NE 10.4 mph - 0.02 in Rain Light Rain
1:15 PM 55.8 °F 55.2 °F 98% 30.22 in 10.0 mi ENE 10.4 mph - N/A Rain Light Rain
1:35 PM 55.4 °F 54.3 °F 96% 30.21 in 10.0 mi ENE 11.5 mph - N/A   Light Drizzle
1:55 PM 56.3 °F 54.9 °F 95% 30.20 in 10.0 mi ENE 12.7 mph 17.3 mph N/A   Overcast
2:15 PM 56.3 °F 54.7 °F 94% 30.20 in 10.0 mi ENE 11.5 mph - N/A   Overcast
2:35 PM 56.5 °F 54.7 °F 94% 30.19 in 10.0 mi NE 12.7 mph - N/A   Overcast
2:55 PM 56.3 °F 54.3 °F 93% 30.19 in 10.0 mi ENE 9.2 mph - 0.11 in   Overcast
3:15 PM 56.3 °F 54.5 °F 94% 30.19 in 10.0 mi ENE 9.2 mph - N/A   Overcast
3:35 PM 56.3 °F 54.3 °F 93% 30.19 in 10.0 mi ENE 8.1 mph - N/A   Overcast
3:55 PM 56.5 °F 54.3 °F 92% 30.19 in 10.0 mi ENE 6.9 mph - N/A   Overcast
4:15 PM 56.3 °F 54.0 °F 92% 30.19 in 10.0 mi ENE 9.2 mph - N/A   Overcast
4:35 PM 56.3 °F 54.0 °F 92% 30.18 in 10.0 mi ENE 8.1 mph - N/A   Overcast
4:55 PM 56.3 °F 53.6 °F 91% 30.19 in 10.0 mi NE 8.1 mph - N/A   Overcast
5:15 PM 56.1 °F 53.8 °F 92% 30.18 in 10.0 mi ENE 9.2 mph - N/A Rain Light Rain
5:35 PM 55.6 °F 53.6 °F 93% 30.19 in 10.0 mi NE 8.1 mph - N/A Rain Light Rain
5:55 PM 55.6 °F 54.0 °F 94% 30.19 in 10.0 mi ENE 6.9 mph - N/A   Light Drizzle
6:15 PM 55.4 °F 54.3 °F 96% 30.19 in 7.0 mi ENE 8.1 mph - N/A Rain Light Rain
6:35 PM 54.9 °F 54.5 °F 99% 30.19 in 7.0 mi NE 5.8 mph - N/A Rain Rain
6:55 PM 54.7 °F 54.1 °F 98% 30.19 in 10.0 mi ENE 4.6 mph - N/A   Light Drizzle
7:15 PM 54.5 °F 54.0 °F 98% 30.20 in 10.0 mi ENE 5.8 mph - N/A   Overcast
7:35 PM 54.5 °F 53.8 °F 97% 30.20 in 10.0 mi ENE 5.8 mph - N/A   Overcast
7:55 PM 54.5 °F 53.8 °F 97% 30.21 in 10.0 mi ENE 4.6 mph - N/A   Overcast
8:15 PM 54.5 °F 54.0 °F 98% 30.21 in 10.0 mi ENE 6.9 mph - N/A   Light Drizzle
8:35 PM 54.1 °F 54.0 °F 99% 30.21 in 7.0 mi East 5.8 mph - N/A   Light Drizzle
8:55 PM 53.8 °F 53.6 °F 99% 30.22 in 7.0 mi East 5.8 mph - N/A   Overcast
9:15 PM 53.8 °F 53.6 °F 99% 30.22 in 10.0 mi ENE 5.8 mph - N/A   Overcast
9:35 PM 53.8 °F 53.6 °F 99% 30.22 in 7.0 mi ENE 9.2 mph - N/A   Overcast
9:55 PM 53.6 °F 53.6 °F 100% 30.22 in 5.0 mi ENE 5.8 mph - N/A Rain Light Rain
10:15 PM 53.8 °F 53.8 °F 100% 30.23 in 5.0 mi East 3.5 mph - N/A Rain Light Rain
10:35 PM 53.8 °F 53.8 °F 100% 30.23 in 5.0 mi East 4.6 mph - N/A   Overcast
10:55 PM 53.6 °F 53.6 °F 100% 30.24 in 3.0 mi ENE 5.8 mph - N/A   Overcast
11:15 PM 53.6 °F 53.6 °F 100% 30.24 in 3.0 mi ENE 5.8 mph - N/A   Overcast
11:35 PM 53.6 °F 53.6 °F 100% 30.24 in 3.0 mi ENE 4.6 mph - N/A   Drizzle
11:55 PM 53.6 °F 53.6 °F 100% 30.23 in 3.0 mi ENE 5.8 mph - N/A Rain Rain